Powrót do katalogu

STARLINK-4087

AktywnyŁącznośćVLEO
NORAD 53156·PAYLOAD·🇺🇸 United States

Wystrzelony Jul 17, 2022 z Cape Canaveral Space Force Station

Loading…

Następne Przeloty (najbliższe 24 godziny)

TLE

ŚwieżeSource: CelesTrak SupGP

Epoka: Sep 15, 2026, 01:59 UTC

1 53156C 22083AA  26258.08312500 -.00622730  00000+0 -18091-1 0  2586
2 53156  53.1595  28.6960 0001205  91.5883 346.3323 15.35231820    18

Śledź STARLINK-4087 w czasie rzeczywistym z AllMySat

Download on the App Store